This is the latest recevied weather packets stored in our database for station/object W7TRD. If no packets are shown the sender has not sent any weather packets the latest 10 day(s).
| Time | Temp. | Humidity | Pressure | Rain* | Wind** | Luminosity | Snow |
|---|---|---|---|---|---|---|---|
| 1788570141 | 15.56° C | 90% | 1015.4 hPa | 0 mm | - | 34 W/m² | - |
| 1788569838 | 15.56° C | 89% | 1015.6 hPa | 0 mm | - | 43 W/m² | - |
| 1788569533 | 15.56° C | 89% | 1015.5 hPa | 0 mm | - | 73 W/m² | - |
| 1788569227 | 15.56° C | 90% | 1015.5 hPa | 0 mm | - | 105 W/m² | - |
| 1788568922 | 15.56° C | 91% | 1015.3 hPa | 0 mm | - | 129 W/m² | - |
| 1788568617 | 15.56° C | 91% | 1015.3 hPa | 0 mm | - | 69 W/m² | - |
| 1788568313 | 15° C | 92% | 1015.3 hPa | 0 mm | - | 89 W/m² | - |
| 1788568009 | 15° C | 93% | 1015.2 hPa | 0 mm | - | 122 W/m² | - |
| 1788567708 | 15° C | 92% | 1015.2 hPa | 0 mm | - | 132 W/m² | - |
| 1788567404 | 15° C | 93% | 1015.2 hPa | 0 mm | - | 139 W/m² | - |
| 1788567103 | 15° C | 93% | 1015.3 hPa | 1.27 mm | - | 143 W/m² | - |
| 1788566798 | 15° C | 93% | 1015.4 hPa | 1.27 mm | - | 140 W/m² | - |
| 1788566495 | 15° C | 95% | 1015.4 hPa | 0 mm | - | 129 W/m² | - |
| 1788566194 | 14.44° C | 95% | 1015.1 hPa | 0 mm | - | 122 W/m² | - |
| 1788565893 | 14.44° C | 94% | 1015.3 hPa | 0 mm | - | 120 W/m² | - |
| 1788565589 | 14.44° C | 94% | 1015.4 hPa | 1.78 mm | - | 102 W/m² | - |
| 1788565284 | 13.89° C | 93% | 1015.2 hPa | 1.78 mm | - | 83 W/m² | - |
| 1788564980 | 13.89° C | 93% | 1015.4 hPa | 1.27 mm | - | 69 W/m² | - |
| 1788564676 | 13.89° C | 92% | 1015.2 hPa | 1.27 mm | - | 64 W/m² | - |
| 1788564372 | 13.89° C | 91% | 1015.3 hPa | 1.78 mm | - | 56 W/m² | - |
| 1788564068 | 13.89° C | 92% | 1015.3 hPa | 1.78 mm | - | 51 W/m² | - |
| 1788563764 | 13.89° C | 91% | 1015.4 hPa | 1.27 mm | - | 46 W/m² | - |
| 1788563458 | 13.33° C | 90% | 1015.4 hPa | 0 mm | - | 45 W/m² | - |
| 1788563157 | 13.33° C | 91% | 1015.6 hPa | 0 mm | - | 46 W/m² | - |
| 1788562853 | 13.89° C | 90% | 1015.5 hPa | 0 mm | - | 42 W/m² | - |
* Rain latest hour (hover to see other rain measurements)
** Current wind speed in m/s (hover to see current wind gust speed)